FMN 1 (43192 NORAD) Tracking and Keplerian Element Data

This shows tracking and keplerian element data for the satellite.

Feedback or suggestion? Click here.




ElementValue
Catalog43192
NameFMN 1
Epoch Orbit4250
Epoch Day312.64102937
Epoch Year2018
RAAN78.7698
Inclination97.3731
Eccentricity0.0017506
Argument of Perigee0.5079
Mean Anonmoly359.6173
Mean Motion15.23366598
Decay Rate2.355E-05
L11 43192U 18015A 18312.64102937 .00002355 00000-0 10168-3 0 9995
L22 43192 097.3731 078.7698 0017506 000.5079 359.6173 15.23366598042509

Live tracking and technical data element details for FMN 1 (NORAD 43192). FMN 1 can be tracked NOW for your location showing map with azimuth and elevation plus other details from your city location.

Track the satellite on the map from your city or location and see movement details for azimuth, elevation, latitude, longitude, range, height, and movement on the map or in text.







IsCatalogInMostPopularTable: catalog: 43192, numindb: 181
Update: records affected: 1



GetName: 43192 FMN 1

Hit Count: updated at: Wed, 14 Nov 2018 11:19:00 GMT